Regional Weather Roundup
Issued by NWS

Home | Current Version | Previous Version | Text Only | Print | Product List | Glossary On
Versions: 1 2 3 4 5 6 7 8 9 10 11 12 13 14 15 16 17 18 19 20 21 22 23 24 25 26 27 28 29 30 31 32 33 34 35 36 37 38 39 40 41 42 43 44 45 46 47 48 49 50
000
ASUS43 KDTX 281610
RWRMI
MICHIGAN HOURLY REGIONAL WEATHER ROUNDUP
NATIONAL WEATHER SERVICE DETROIT/PONTIAC MI
1100 AM EST WED JAN 28 2015

NOTE: "FAIR" INDICATES FEW OR NO CLOUDS BELOW 12,000 FEET WITH NO
SIGNIFICANT WEATHER AND/OR OBSTRUCTION TO VISIBILITY.

MIZ047>049-052>055-059>063-066>070-074>076-081>083-281700-
SOUTHEAST LOWER MICHIGAN

CITY           SKY/WX    TMP DP  RH WIND       PRES   REMARKS
ADRIAN         SUNNY     22  13  68 S5        30.35S WCI  16
ALMA           MOSUNNY   21  13  73 CALM      30.32S
ANN ARBOR      SUNNY     24  11  57 S6        30.34S WCI  17
BAD AXE        SUNNY     18  12  76 SW3       30.33R
CARO           SUNNY     22  12  66 CALM      30.33R
DETROIT CITY   SUNNY     24  11  57 CALM      30.35S
DETROIT        MOSUNNY   22  14  71 CALM      30.36F
FLINT          SUNNY     23  13  65 SW6       30.33R WCI  16
GROSSE ILE     SUNNY     21  12  68 CALM      30.35S
HILLSDALE      SUNNY     24  11  57 CALM      30.29F
HOWELL         SUNNY     23  13  66 S5        30.31R WCI  16

CITY           SKY/WX    TMP DP  RH WIND       PRES   REMARKS
JACKSON        SUNNY     25  12  58 S6        30.31S WCI  18
LAMBERTVILLE   SUNNY     27  12  54 CALM      30.37R
LANSING        SUNNY     24  12  60 SW7       30.32R WCI  16
LAPEER         FAIR      19  11  71 CALM      30.32S
MASON          SUNNY     22  13  68 S3        30.31S
MONROE         SUNNY     23  14  68 CALM      30.35S
MT. CLEMENS    MOSUNNY   21  10  63 CALM      30.33R
PONTIAC        MOSUNNY   22  12  65 VRB3      30.30F
PORT HOPE        N/A     22  11  62 VRB5      30.31S WCI  16
PORT HURON     SUNNY     19  10  68 CALM      30.35R
TRI CITIES     SUNNY     22  14  71 S5        30.33R WCI  16
TROY           SUNNY     26   6  43 CALM      30.35F
SAGINAW HB     SUNNY     23  18  80 S6        30.33R WCI  16
$$
MIZ043>046-050>051-056>058-064>065-071>073-077>080-281700-
SOUTHWEST LOWER MICHIGAN

CITY           SKY/WX    TMP DP  RH WIND       PRES   REMARKS
BATTLE CREEK   SUNNY     24  11  57 S6        30.30F WCI  17
BENTON HARBOR  SUNNY     25  13  60 SE10      30.29F WCI  15
BIG RAPIDS     MOSUNNY   14   8  76 CALM      30.27S
COLDWATER      SUNNY     23  11  61 S6        30.31S WCI  16
FREMONT        FAIR      21  10  60 S5        30.28S WCI  15
HOLLAND        SUNNY     26  15  63 SE5       30.30S WCI  20
GRAND RAPIDS   PTSUNNY   24  13  62 S9        30.30S WCI  14
IONIA          FAIR      26  13  58 SW7       30.30S WCI  18
KALAMAZOO      SUNNY     24  11  57 S9        30.30F WCI  14
LUDINGTON      CLOUDY    24  13  62 SE5       30.27S WCI  19
MARSHALL       SUNNY     23  11  60 S3        30.31R
MOUNT PLEASANT MOSUNNY   20  12  69 CALM      30.30S
MUSKEGON       PTSUNNY   26  13  57 S7        30.30R WCI  18
SOUTH HAVEN    SUNNY     27  11  51 S12       30.29R WCI  17
$$
MIZ016>042-281700-
NORTHERN LOWER MICHIGAN

CITY           SKY/WX    TMP DP  RH WIND       PRES   REMARKS
ALPENA         SUNNY     18   6  59 CALM      30.30S
BEAVER ISLAND  CLOUDY    25  19  78 CALM      30.24S
BELLAIRE       MOSUNNY   16   9  72 CALM      30.28R
CADILLAC       SUNNY     14   5  66 CALM      30.22S
CHARLEVOIX     MOSUNNY   16   9  75 SE5       30.28S WCI   9
FRANKFORT      MOSUNNY   24  10  55 S8        30.26S WCI  15
GAYLORD        SUNNY     13   4  67 S3        30.22S
GRAYLING       SUNNY      9   1  71 CALM      30.24F
HARBOR SPRINGS MOSUNNY   18   7  62 E3        30.26S
HOUGHTON LAKE  SUNNY     17   6  62 CALM      30.26F
MANISTEE       SUNNY     19  10  68 NE3       30.27S
OSCODA         SUNNY     20   8  58 CALM      30.30F
PELLSTON       MOSUNNY    6   0  76 CALM      30.27S
ROGERS CITY    SUNNY     20   8  60 CALM      30.29S
TRAVERSE CITY  PTSUNNY   22   5  48 CALM      30.26S
$$
MIZ007>008-015-281700-
EASTERN UPPER MICHIGAN

CITY           SKY/WX    TMP DP  RH WIND       PRES   REMARKS
KINROSS        MOSUNNY   19   9  63 SE6       30.25F WCI  11
MACKINAC ISLAN MOSUNNY   21   2  44 SE3       30.25F
NEWBERRY       CLOUDY    19  15  84 SE6       30.21F WCI  11
S. S. MARIE    FAIR      10   0  63 CALM      30.27S
MUNISING         N/A     28  18  66 S9G23     30.19R WCI  19
$$
MIZ004>006-011>014-085-281700-
CENTRAL UPPER MICHIGAN

CITY           SKY/WX    TMP DP  RH WIND       PRES   REMARKS
MANISTIQUE     CLOUDY    28  23  79 S10G17    30.21S WCI  19
ESCANABA       CLOUDY    25  18  74 S8        30.22F WCI  16
MENOMINEE      CLOUDY    27  18  69 SW12      30.21F WCI  16
SAWYER-GWINN   CLOUDY    23  18  80 SW16      30.14S WCI  10
$$
MIZ001>003-009>011-084-281700-
WESTERN UPPER MICHIGAN

CITY           SKY/WX    TMP DP  RH WIND       PRES   REMARKS
IRON MOUNTAIN  CLOUDY    24  17  74 S8        30.14F WCI  15
HOUGHTON       CLOUDY    26  20  77 SE12      30.06F WCI  16
COPPER HARBOR    N/A     29  22  75 VRB5G16   30.10F WCI  24
IRONWOOD       CLOUDY    27  21  80 SE6       29.98F WCI  20
$$

ABBREVIATIONS USED IN REMARKS
   TC - TEMPERATURE IN CELSIUS
  WCI - WIND CHILL INDEX
   HX - HEAT INDEX
  VSB - VISIBILITY




USA.gov is the U.S. government's official web portal to all federal, state and local government web resources and services.